GFSNE_con_mucape_237.txt.gz
CAPE
291 186 166 121 75 107 219 402 503 443 377 557 601 416 375 303 177 170 104 82 23 25 29 71 16 0 0 0 0 0 0 0 0 17 15 37 70 34
620 533 398 379 429 534 553 521 638 577 544 662 465 397 347 190 193 62 46 64 43 7 36 46 4 2 0 0 0 0 0 0 0 3 31 53 56 26
840 785 701 780 775 636 715 912 945 1092 1018 827 600 278 405 203 192 176 18 10 2 12 10 0 0 0 0 0 0 0 0 0 2 5 23 38 43 12
1007 888 966 870 971 943 889 812 1565 1173 953 538 414 271 409 301 82 147 10 1 0 10 21 9 2 0 0 0 0 0 0 0 4 4 11 13 25 35
1080 900 1050 1045 915 871 1200 1665 1536 1445 771 710 529 462 288 148 230 3 2 0 6 0 0 0 2 0 0 0 0 0 0 0 0 6 11 9 10 17
1176 823 1442 1379 1327 1471 1678 1704 1667 796 821 542 958 485 263 184 199 29 0 2 2 3 0 0 0 0 0 0 0 0 0 0 0 2 5 5 2 1
1192 1281 1667 1890 1538 1748 1792 1638 1414 835 647 751 339 534 198 93 229 64 7 2 9 0 0 0 0 0 0 0 0 0 0 0 0 2 0 2 3 0
1049 1483 1648 2090 1645 1723 1509 1120 891 917 560 195 292 307 152 138 103 30 1 0 0 0 0 0 0 0 0 0 0 0 0 1 1 1 1 1 0 5
1248 1643 2059 2157 1836 1728 1180 1208 414 262 216 315 261 225 95 26 3 0 0 0 0 0 0 0 0 0 0 0 0 0 0 0 0 0 1 0 1 1
1457 1874 2038 1829 1688 1644 1316 754 178 108 82 89 114 104 42 0 0 0 0 0 0 0 0 0 0 0 0 0 0 0 0 0 0 0 1 2 2 2
1718 1903 1749 1803 1634 1464 987 262 76 73 50 7 14 1 0 0 7 0 0 0 0 0 0 0 0 0 0 0 0 0 0 0 0 0 0 0 6 2
1623 1585 1505 1522 1730 1175 368 122 78 54 7 14 0 0 0 0 0 0 0 0 0 0 0 0 0 0 0 0 0 0 0 0 0 0 0 0 0 0
1296 1504 1005 1431 1394 599 148 109 55 34 17 0 0 0 0 0 0 0 0 0 0 0 0 0 0 0 0 0 0 0 0 0 0 0 0 0 0 0
1086 994 870 1129 843 265 124 18 7 2 0 0 0 0 0 0 0 0 0 0 0 0 0 0 0 0 0 0 0 0 0 0 0 0 0 0 0 0
909 834 988 732 705 188 117 6 0 0 0 0 0 0 0 0 0 0 0 0 0 0 0 0 0 0 0 0 0 0 0 0 0 0 0 0 3 2
704 766 733 654 315 189 80 9 2 0 3 4 0 0 0 0 0 0 0 0 0 0 0 0 0 0 0 0 0 0 0 0 0 0 0 0 0 0
709 733 784 396 258 181 41 6 0 7 8 0 4 0 0 0 0 0 0 0 0 0 0 0 0 0 0 0 0 0 0 0 0 0 0 0 0 4
284 194 303 411 234 126 38 5 26 13 4 0 0 1 41 2 0 0 0 0 0 0 0 0 0 0 0 0 0 0 0 0 0 0 0 0 0 0
363 381 169 127 105 33 8 6 37 7 1 0 0 41 37 0 0 0 0 0 0 0 0 0 0 0 0 0 0 0 0 0 0 0 0 0 0 0
212 249 178 109 24 4 16 26 1 0 1 1 0 0 0 0 0 0 0 0 0 0 0 0 0 0 0 0 0 0 0 0 0 0 0 0 0 0
345 342 284 100 55 8 6 0 5 1 0 0 0 0 0 0 0 0 0 0 0 0 0 0 0 0 0 0 0 0 0 0 0 0 0 0 0 0
331 244 241 55 35 0 38 1 0 0 0 0 0 0 0 0 0 0 0 0 0 0 0 0 0 0 0 0 0 0 0 0 0 0 0 0 0 0
276 311 151 17 0 0 0 0 0 0 0 0 0 0 0 0 0 0 0 0 0 0 0 0 0 0 0 0 0 0 0 0 0 0 0 0 0 0

GFSNE_con_mucape_240.txt.gz
CAPE
417 350 298 234 120 49 12 1 2 6 32 340 480 509 542 613 472 317 242 62 25 1 1 33 10 23 7 0 0 0 0 0 0 0 25 35 30 20
629 563 548 507 354 257 179 81 29 19 29 188 286 476 622 534 260 223 97 83 83 6 18 0 7 27 0 0 0 0 0 0 0 1 0 20 23 22
1014 815 778 740 623 521 420 345 216 161 96 306 386 575 756 574 216 279 216 120 0 4 0 1 2 6 0 0 0 0 0 0 0 1 11 28 36 27
1596 1276 1068 958 854 762 687 650 476 515 528 508 504 673 918 533 186 386 209 8 16 0 0 0 0 0 8 2 12 0 0 0 0 0 17 14 22 30
1887 1710 1463 1178 998 873 811 805 742 700 638 551 735 852 626 347 236 246 204 41 16 0 0 0 1 0 0 11 7 0 0 0 0 0 16 8 20 14
1849 1833 1744 1481 1155 999 654 1207 822 833 736 722 1025 1017 461 569 409 158 148 190 57 0 0 0 0 0 0 0 0 0 0 0 0 0 0 11 3 2
1809 1806 1803 1634 1301 1124 632 1421 1170 749 679 1206 1291 865 343 306 610 119 98 109 22 1 0 0 0 0 0 0 0 0 0 0 0 0 0 2 2 3
1768 1799 1832 1725 1425 1119 952 848 987 651 928 1470 1171 847 458 500 222 132 52 80 169 1 0 0 0 0 0 0 0 0 0 0 0 2 2 3 3 3
1671 1671 1749 1770 1536 1294 1504 1080 1164 808 955 1332 1027 888 346 512 318 134 107 68 17 0 0 0 0 0 0 0 0 0 0 0 0 0 0 1 3 7
1625 1634 1633 1674 1691 1073 1356 1115 1077 1078 1277 1093 1073 775 220 187 170 70 8 2 0 0 0 0 0 0 0 0 0 0 0 0 0 0 0 0 6 5
1461 1593 1676 1716 1596 1418 1055 1211 1076 1265 1357 1008 728 338 167 196 126 35 0 0 0 0 0 0 0 0 0 0 0 0 0 0 0 0 0 0 0 2
855 1153 1265 1451 1322 1168 1112 1046 1145 1157 1097 1187 491 88 90 59 0 0 0 0 0 0 0 0 0 0 0 0 0 0 0 0 0 0 0 0 0 0
744 834 914 972 1106 1010 955 875 988 968 892 946 112 74 19 3 0 0 0 0 0 0 0 0 0 0 0 0 0 0 0 0 0 0 0 0 0 0
481 885 524 619 668 634 305 354 756 683 700 337 121 69 62 2 0 0 0 0 0 0 0 0 0 0 0 0 0 0 0 0 0 0 0 0 0 0
333 316 514 373 335 84 9 220 723 439 617 170 105 87 2 0 0 0 1 0 0 0 0 0 0 0 0 0 0 0 0 0 0 0 0 0 0 0
93 123 233 298 233 34 64 372 386 479 314 136 60 0 0 0 1 1 1 0 0 0 0 0 0 0 0 0 0 0 0 0 0 0 0 0 0 0
4 9 205 166 388 273 254 287 332 411 290 131 63 1 0 0 0 0 0 0 0 0 0 0 0 0 0 0 0 0 0 0 0 0 0 0 0 0
62 28 85 337 286 187 275 225 279 333 184 119 55 1 1 6 5 0 0 0 0 1 0 0 0 0 0 0 0 0 0 0 0 0 0 0 0 0
77 85 136 129 307 248 174 132 1 37 6 49 3 15 2 3 6 1 0 0 0 0 0 0 0 0 0 0 0 0 0 0 0 0 0 0 0 0
22 75 100 270 231 212 255 71 27 12 0 0 0 1 0 0 0 0 0 0 0 0 0 0 0 0 0 0 0 0 0 0 0 0 0 0 0 0
23 83 159 310 243 89 87 98 16 4 0 0 0 0 0 0 0 0 0 0 0 0 0 0 0 0 0 0 0 0 0 0 0 0 0 0 0 0
199 212 207 274 317 148 48 75 61 11 0 0 0 0 0 0 0 0 0 0 0 0 0 0 0 0 0 0 0 0 0 0 0 0 0 0 0 0
171 216 295 343 240 151 161 29 0 0 0 0 0 0 0 0 0 0 0 0 0 0 0 0 0 0 0 0 0 0 0 0 0 0 0 0 0 0

GFSNE_con_mucape_243.txt.gz
CAPE
478 460 447 480 446 417 369 296 209 142 107 46 3 137 274 327 433 567 648 457 195 70 9 1 0 0 0 1 0 1 0 0 0 0 0 0 33 41
718 613 697 817 738 669 589 500 420 340 188 223 62 86 310 333 371 545 484 282 155 63 93 72 4 0 0 0 0 0 0 0 0 0 0 0 26 34
1184 1021 1113 1297 1254 1144 936 718 593 483 314 413 256 179 148 255 446 538 478 332 180 139 62 11 7 0 1 3 0 0 0 0 0 0 0 1 20 32
1689 1460 1379 1532 1581 1645 1519 1190 873 728 546 456 449 388 293 309 409 530 423 401 214 143 85 36 0 0 0 0 0 0 0 8 2 0 0 4 13 22
1858 1684 1678 1749 1622 1708 1795 1710 1386 1007 621 422 512 570 479 528 464 473 546 257 272 100 87 67 0 0 0 0 0 0 0 1 0 0 0 0 0 0
1877 1870 1773 1730 1687 1670 1696 1746 1738 1452 1277 938 878 539 599 659 488 577 458 497 133 52 89 88 4 12 0 0 0 0 0 0 0 0 0 0 0 0
1435 1613 1617 1540 1634 1704 1709 1687 1678 1583 1585 1345 806 900 666 616 581 629 504 84 111 66 75 48 1 1 0 0 0 0 0 0 0 0 0 0 0 2
1196 1145 1148 1252 1346 1420 1569 1709 1520 1484 1071 758 1003 889 663 539 689 783 677 147 135 31 23 22 21 3 0 0 0 0 0 0 0 0 0 0 1 0
1098 1300 1196 1276 1339 1360 1333 1443 1524 1377 1093 639 880 341 960 472 822 786 390 175 367 61 82 82 7 0 0 0 0 0 0 0 0 0 0 0 0 0
511 747 1453 1324 1193 1262 1361 1353 1369 1458 1172 1046 826 488 681 672 783 602 457 239 145 109 94 3 0 0 0 0 0 0 0 0 0 0 0 0 0 0
1 195 536 686 1295 1201 1200 1097 1108 1139 1319 1046 735 547 742 877 537 444 345 156 130 60 9 0 0 0 0 0 0 0 0 0 0 0 0 0 0 0
0 0 0 482 620 740 1119 1078 818 772 823 753 791 556 700 599 515 392 182 160 86 5 0 0 0 0 0 0 0 0 0 0 0 0 0 0 0 0
0 0 0 5 466 548 502 482 537 595 639 641 409 290 341 274 261 401 145 126 25 0 0 0 0 0 0 0 0 0 0 0 0 0 0 0 0 0
0 0 0 0 150 370 555 428 445 335 457 271 187 4 0 174 286 244 86 40 1 0 0 0 0 0 0 0 0 0 0 0 0 0 0 0 0 0
0 0 0 0 79 47 327 522 395 204 351 36 25 0 5 123 151 179 49 43 0 0 0 0 0 0 0 0 0 0 0 0 0 0 0 0 0 0
0 0 0 0 0 0 26 113 303 229 281 14 0 1 224 125 175 77 63 22 0 0 0 0 1 0 0 0 0 0 0 0 0 0 0 0 0 0
0 0 0 0 0 0 1 107 216 185 177 23 1 18 214 57 49 64 37 0 0 1 0 0 0 5 0 0 0 0 0 0 0 0 0 0 0 0
0 0 0 5 36 3 33 158 189 222 318 274 158 86 92 11 25 84 7 2 0 3 1 0 0 0 0 0 0 0 0 0 0 0 0 0 0 0
0 0 0 4 34 20 1 37 159 98 319 209 151 120 42 0 3 8 26 13 0 0 0 0 0 0 0 0 0 0 0 0 0 0 0 0 0 0
0 0 0 30 31 1 47 112 87 127 240 98 102 38 50 34 0 2 0 0 0 0 0 0 0 0 0 0 0 0 0 0 0 0 0 0 0 0
0 1 41 30 15 4 96 144 294 256 43 30 109 11 24 44 0 0 0 0 0 0 0 0 0 0 0 0 0 0 0 0 0 0 0 0 0 0
0 8 26 25 16 113 122 197 294 231 107 22 18 1 0 0 0 0 0 0 0 0 0 0 0 0 0 0 0 0 0 0 0 0 0 0 0 0
0 5 3 99 104 209 223 275 273 191 63 2 2 0 0 0 0 0 0 0 0 0 0 0 0 0 0 0 0 0 0 0 0 0 0 0 0 0

GFSNE_con_mucape_246.txt.gz
CAPE
412 377 365 386 336 345 320 323 293 313 396 446 203 217 207 91 1 36 154 272 549 585 231 110 45 14 15 0 0 0 0 0 0 0 0 0 0 9
466 459 487 581 709 746 682 692 678 619 523 696 502 399 338 242 125 155 250 317 532 457 228 137 49 60 15 0 0 0 0 0 0 0 0 0 0 0
1127 1087 1027 1109 1158 1141 1081 1103 1193 1139 1045 1033 821 650 507 421 305 235 160 225 494 315 132 105 83 53 2 4 0 0 0 0 0 0 0 0 0 2
1037 1071 1158 1556 1587 759 819 965 1137 1214 1123 1062 1046 972 598 401 351 400 285 200 374 314 144 221 38 79 20 0 0 0 0 0 0 0 0 0 0 1
1575 1503 1342 1350 1300 1281 1400 944 855 1236 968 725 911 834 688 574 761 727 789 301 345 293 162 126 75 4 38 0 1 0 0 0 0 0 0 0 0 0
1240 1179 1131 1276 1459 1505 1518 1281 942 937 880 654 1045 755 962 503 277 658 622 549 439 189 221 326 108 15 67 12 4 0 0 0 0 0 0 0 0 0
1068 1025 1039 1053 1099 1152 1263 1287 1301 1188 1099 1004 747 477 903 904 293 298 554 583 446 205 320 261 77 74 66 26 13 2 0 0 0 0 0 0 0 0
723 822 1644 1385 1153 1246 1178 1006 967 1221 1340 1338 863 438 602 676 773 230 258 697 614 300 312 482 140 126 73 56 20 0 0 0 0 0 0 0 0 0
285 407 627 869 851 827 1209 1057 1079 928 1065 1080 1057 886 856 750 612 334 250 198 622 232 294 524 86 75 69 72 15 0 0 0 0 0 0 0 0 0
48 16 4 56 298 724 805 857 827 1252 1261 1280 943 1077 768 824 898 890 545 367 375 317 262 326 99 136 90 65 5 0 0 0 0 0 0 0 0 0
0 0 0 0 0 14 127 421 521 613 884 1101 714 833 814 719 724 595 414 8 233 226 147 272 160 67 86 11 0 0 0 0 0 0 0 0 0 0
0 0 0 0 0 0 0 268 463 468 602 680 641 936 735 732 355 406 417 23 31 4 134 118 176 81 43 0 0 0 0 0 0 0 0 0 0 0
0 0 0 0 0 0 0 22 176 344 592 586 527 561 580 460 585 298 161 66 1 3 73 70 144 93 28 0 0 0 0 4 0 0 0 0 0 0
0 0 0 0 0 0 0 8 144 259 287 270 467 362 432 356 365 260 119 16 0 5 66 84 68 42 0 0 0 0 5 0 0 0 0 0 0 0
0 0 0 0 0 0 0 0 22 109 113 216 305 405 302 249 230 188 38 1 1 0 56 70 37 14 0 0 0 0 0 0 0 0 0 0 0 0
0 0 0 0 0 0 0 0 0 0 22 129 194 292 451 296 177 165 26 34 5 13 65 61 52 8 0 0 0 2 0 0 0 0 0 0 0 0
0 0 0 0 0 0 0 0 1 0 1 113 282 321 338 275 251 173 14 13 32 20 57 58 11 10 5 0 1 0 0 0 0 0 0 0 0 0
0 0 0 0 1 0 0 0 1 5 93 166 226 340 316 310 333 180 96 77 21 37 36 12 1 0 0 0 0 0 0 0 0 0 0 0 0 0
0 0 0 0 0 0 0 0 7 0 0 4 269 320 265 301 217 200 78 148 10 9 0 0 0 0 0 0 0 0 0 0 0 0 0 0 0 0
20 0 0 0 0 0 0 32 52 0 1 5 89 253 200 340 328 289 256 37 23 37 2 0 0 0 0 0 0 0 0 0 0 0 0 0 0 0
43 22 2 0 1 4 19 26 16 27 34 52 106 261 210 268 168 85 172 26 3 0 7 0 0 0 0 0 0 0 0 0 0 0 0 0 0 0
90 92 5 1 3 7 24 22 26 31 94 143 219 305 180 58 40 1 16 18 0 0 0 0 0 0 0 0 0 0 0 0 0 0 0 0 0 0
107 20 0 3 2 1 88 112 87 72 88 249 141 261 304 179 2 0 0 0 0 0 0 0 0 0 0 0 0 0 0 0 0 0 0 0 0 0

GFSNE_con_mucape_249.txt.gz
CAPE
414 505 409 460 451 228 309 268 297 335 644 932 521 396 468 515 355 195 62 0 29 165 316 432 402 165 74 0 0 0 0 0 0 0 0 0 0 0
356 263 284 408 368 376 326 337 508 610 506 537 724 603 702 842 772 488 285 148 34 135 342 504 515 201 118 49 2 0 0 0 0 0 0 0 0 0
440 462 535 460 530 658 883 901 976 1022 628 502 547 460 561 757 910 683 346 294 215 165 258 478 406 153 107 61 42 8 0 0 0 0 0 0 0 0
595 647 855 879 874 837 922 1246 1456 634 212 295 649 581 405 649 772 641 647 353 340 407 226 382 363 156 89 203 37 28 0 0 7 10 0 0 0 0
485 754 895 909 1149 1460 1387 1215 1118 913 877 705 418 399 638 683 519 606 495 425 140 174 372 290 337 218 137 199 69 34 1 0 18 6 0 0 0 0
427 706 956 1073 1079 990 966 957 1024 814 652 627 694 711 373 560 435 416 467 458 428 186 192 280 347 301 180 220 181 62 43 8 5 0 0 0 0 0
472 734 1100 948 1133 975 954 867 798 685 707 775 959 706 635 854 719 529 530 695 412 307 251 256 299 340 389 277 415 107 113 27 12 0 0 0 0 0
744 826 1265 1063 952 957 896 860 789 729 862 857 966 631 627 564 498 730 600 438 488 384 207 147 232 290 264 239 163 153 101 45 20 3 0 0 0 0
225 263 399 502 674 818 863 854 803 810 825 772 802 692 789 799 639 589 740 724 341 620 620 565 379 200 91 87 88 146 86 100 20 0 0 0 0 0
1 21 34 51 31 92 316 626 972 745 809 975 918 839 890 837 763 863 888 761 573 543 572 301 46 62 9 31 12 69 82 105 15 0 0 0 0 0
0 0 0 0 0 0 0 14 103 233 543 676 574 603 737 784 824 778 659 739 658 535 400 311 107 29 22 1 19 61 90 113 24 0 0 0 0 0
0 0 0 0 0 0 0 0 0 0 1 191 424 537 576 817 869 899 840 714 632 544 454 193 185 40 13 32 0 26 64 73 21 3 0 0 0 1
0 0 0 3 0 0 0 0 0 0 0 0 48 279 576 764 762 682 625 620 647 709 467 384 188 134 6 0 0 41 73 82 30 0 0 0 1 0
0 0 0 0 0 0 0 0 0 0 0 0 2 85 304 407 451 542 593 478 511 500 340 285 106 43 7 4 1 19 40 65 19 1 0 0 0 0
0 0 0 0 0 0 0 0 0 0 0 0 0 1 101 234 319 414 526 497 433 406 495 374 88 43 1 5 0 1 4 3 0 0 0 0 0 0
0 0 0 0 0 0 0 0 0 0 0 0 0 0 0 65 145 251 430 484 419 372 523 321 114 68 18 12 15 0 0 1 0 4 0 0 0 0
0 0 0 0 0 0 0 0 0 0 0 0 0 0 3 15 89 337 529 601 534 412 508 255 204 107 59 2 9 0 5 0 0 0 0 0 0 0
0 0 0 0 0 0 0 0 0 0 0 0 1 7 15 31 138 234 573 385 488 514 549 321 207 85 97 103 2 0 0 0 0 0 0 0 0 0
0 0 0 0 0 0 0 0 0 0 0 0 40 31 8 0 15 108 244 310 282 368 302 220 487 290 181 148 17 0 0 0 0 0 0 0 0 0
0 0 97 21 5 0 0 0 0 1 0 0 20 16 18 22 27 23 80 212 254 231 221 242 108 158 118 100 12 0 0 0 0 0 0 0 0 0
0 4 88 79 39 28 23 0 0 0 0 0 2 2 38 85 131 108 197 143 51 54 104 154 104 0 0 0 0 0 0 0 0 0 0 0 0 0
11 104 57 74 49 39 15 0 0 0 3 3 6 35 60 87 176 166 217 154 182 57 0 0 0 0 0 0 0 0 0 0 0 0 0 0 0 0
49 60 40 48 31 12 1 0 2 9 72 24 30 10 118 82 205 139 196 74 0 0 0 0 0 0 0 0 0 0 0 0 0 0 0 0 0 0

GFSNE_con_mucape_252.txt.gz
CAPE
1045 910 663 526 916 809 805 844 875 1107 1150 1318 1391 1405 1292 852 543 525 642 603 243 42 0 5 187 306 405 387 253 117 78 9 1 0 0 0 0 0
780 923 826 879 1034 1060 1140 1234 1162 1087 1226 1113 1336 1609 1509 891 529 408 484 748 665 265 101 70 242 348 460 472 375 183 95 12 9 0 0 0 0 0
909 1015 988 893 1025 1216 1290 1199 1069 1014 765 951 1084 1419 1710 1612 1092 300 392 660 668 455 225 205 174 367 474 548 413 181 69 32 29 5 0 0 0 1
824 801 633 781 1090 1344 1246 1339 1184 1179 870 616 943 1234 1406 1360 1109 1033 339 468 714 520 362 227 253 243 388 546 384 174 71 98 46 45 11 0 1 8
1167 901 643 505 446 551 658 1038 1036 839 889 1010 1151 920 1009 1356 566 495 473 668 520 565 353 308 343 199 294 418 523 224 175 76 75 49 22 14 16 5
787 581 440 271 367 480 551 754 803 1041 993 711 745 825 754 658 460 643 729 603 501 434 488 414 313 220 187 263 393 478 261 150 122 57 44 19 13 0
196 109 49 23 80 198 445 831 1092 888 871 997 1047 854 711 619 773 725 563 584 589 563 393 492 515 369 239 221 297 408 255 133 50 24 28 12 2 0
140 62 60 35 2 152 184 517 722 964 1066 958 726 634 550 654 671 829 521 567 447 623 610 431 519 558 436 347 457 322 249 178 141 3 12 63 28 0
74 297 330 189 294 452 547 610 661 868 979 907 803 995 1110 865 809 841 779 507 562 665 811 705 727 601 307 451 331 291 284 134 75 12 3 23 0 3
16 19 8 81 113 193 142 256 319 446 530 745 781 691 776 927 774 758 746 759 674 514 803 514 610 644 599 499 291 206 247 58 12 3 2 5 28 11
0 6 8 5 5 0 0 0 0 0 0 25 269 209 415 543 646 653 594 783 363 349 441 661 478 605 715 356 285 307 103 54 3 6 11 3 21 24
0 0 0 0 0 0 0 0 0 0 0 0 0 0 0 0 103 418 644 522 416 335 473 698 583 455 473 311 559 420 256 83 2 5 9 3 1 8
0 0 0 0 0 0 0 0 0 0 0 0 0 0 0 0 0 94 310 596 550 248 243 440 364 420 656 574 347 412 343 270 42 2 11 13 7 2
0 0 0 0 0 2 0 0 0 0 0 0 0 0 0 0 0 0 82 388 604 617 493 387 575 543 540 550 417 354 374 287 172 16 21 6 8 0
0 0 0 0 0 0 0 0 0 0 0 0 0 0 0 0 0 0 0 40 316 424 618 667 686 496 621 683 547 356 282 194 98 51 20 2 1 0
0 0 0 0 0 0 0 0 0 0 0 0 0 0 0 0 0 1 0 0 0 62 266 462 703 703 777 761 564 376 353 369 136 82 1 1 0 0
0 0 0 0 0 0 0 0 0 0 0 0 0 0 0 0 0 0 1 1 1 51 224 530 761 655 645 518 497 468 290 398 186 208 50 17 3 0
0 0 0 0 0 0 0 0 0 0 0 0 0 0 0 0 0 1 0 0 0 2 29 271 456 554 485 229 357 285 230 343 167 0 0 9 0 0
0 0 0 0 0 0 0 0 0 0 0 0 0 0 0 0 0 0 0 0 0 0 2 16 11 126 355 182 89 2 0 57 4 0 0 0 0 0
0 0 0 0 0 4 33 1 0 0 0 0 0 0 0 0 0 2 4 0 0 26 33 19 30 6 27 124 83 9 0 0 0 0 0 0 0 0
0 0 0 0 9 13 51 53 50 27 10 2 0 0 0 0 0 0 0 0 19 38 56 65 41 6 4 0 0 0 0 0 0 0 0 0 0 0
0 6 13 9 14 58 58 65 53 42 17 1 0 1 0 0 0 1 0 2 11 99 137 45 3 0 0 0 0 0 0 0 0 0 0 0 0 0
17 32 38 18 20 32 32 29 21 9 0 0 0 1 19 11 2 59 68 56 108 93 28 0 0 0 0 0 0 0 0 0 0 0 0 0 0 0

GFSNE_con_mucape_255.txt.gz
CAPE
1042 1040 896 492 403 354 451 438 660 995 1301 1594 1693 1906 2107 2162 1610 1587 1302 772 418 494 697 427 106 1 0 0 151 299 384 285 169 108 50 0 0 0
924 1083 1114 893 671 665 708 1139 1415 1388 1365 1539 1481 1681 1963 1744 1813 1397 1401 735 494 328 572 671 461 205 43 84 246 386 475 410 268 131 58 12 9 6
1171 977 996 1148 953 1002 1338 1420 1477 1605 1314 1385 1458 1530 2102 2403 2071 1403 1191 1116 859 425 412 583 479 332 233 206 345 455 541 522 437 164 28 19 19 18
995 1261 1122 1041 1240 1376 1554 1629 1589 1522 1352 855 1037 1294 1552 1629 1954 1639 1428 1113 892 463 268 465 620 359 311 281 304 464 573 583 504 201 78 76 74 20
1090 1184 1322 1370 1358 1535 1515 1343 1454 1248 1159 726 613 598 931 1277 1447 1435 1017 843 738 617 505 486 557 538 306 325 293 348 408 544 635 359 198 138 73 22
449 941 1245 1112 872 915 1006 798 653 766 679 559 394 332 482 734 726 730 769 617 495 499 560 536 566 502 544 449 282 214 277 336 502 652 574 486 130 57
179 494 649 649 717 710 632 792 558 393 418 527 662 395 330 373 486 616 502 611 497 480 530 490 502 541 484 559 544 482 304 207 281 413 498 412 354 135
358 277 624 481 158 119 134 0 58 11 34 22 74 468 214 477 600 694 627 804 603 622 401 357 318 435 595 551 484 541 572 565 374 304 336 292 199 174
143 202 126 63 84 160 80 45 57 50 1 6 103 334 318 602 704 720 647 653 630 408 363 505 297 544 499 574 437 576 618 521 514 333 393 334 200 113
0 0 33 41 0 0 40 75 72 59 65 82 188 60 163 269 334 454 372 396 342 584 352 405 186 302 307 374 411 533 421 590 450 514 372 344 71 42
0 1 0 0 0 43 1 51 54 22 87 40 3 2 5 7 44 132 130 147 88 136 187 187 260 207 240 189 250 341 479 495 587 536 402 343 161 103
0 0 0 5 5 0 0 0 10 5 0 6 0 0 0 0 0 0 0 0 1 9 30 73 141 204 210 156 196 124 184 278 588 532 493 454 276 124
0 0 0 0 0 2 2 0 0 0 0 0 0 0 0 0 0 0 0 0 0 1 0 37 89 158 234 344 266 192 298 454 418 591 370 516 435 251
0 0 0 0 0 0 0 2 0 0 0 0 0 0 0 0 0 0 0 0 0 0 0 0 5 94 235 334 278 247 226 600 393 614 514 543 445 228
0 0 0 0 0 0 0 0 0 0 4 3 6 7 9 1 0 0 0 1 11 0 0 0 3 50 117 165 179 191 230 308 493 519 557 441 355 381
0 0 0 0 0 0 0 0 0 0 0 0 0 0 9 6 1 0 0 0 0 0 1 0 1 1 4 15 63 51 21 312 298 479 284 343 242 217
0 0 0 0 0 0 0 0 0 0 0 0 0 0 0 0 0 0 0 0 0 0 0 0 3 18 4 7 40 48 82 178 53 205 280 255 25 0
0 0 0 0 0 0 0 0 0 1 0 0 0 0 0 0 0 0 0 0 0 2 0 0 0 2 1 1 2 4 6 2 11 37 6 15 62 0
0 0 0 0 0 0 0 0 7 9 1 0 0 0 0 0 0 0 0 0 0 0 0 0 0 0 4 3 0 2 0 3 2 1 0 0 7 0
0 0 0 0 0 0 0 0 5 12 1 0 0 0 1 2 0 0 0 0 0 0 0 0 0 0 0 2 3 1 5 0 0 0 0 0 0 0
0 0 0 0 0 7 10 11 18 21 50 35 25 19 13 8 0 0 0 0 0 0 0 0 0 0 0 0 0 2 0 4 0 0 0 0 0 0
0 0 0 7 11 9 17 18 26 24 33 31 36 43 30 1 0 0 0 10 3 0 0 1 0 1 25 34 24 11 0 1 0 0 0 0 0 0
0 0 0 0 0 12 27 32 49 32 5 5 6 1 0 0 0 0 0 0 1 2 14 5 8 3 43 15 0 0 0 0 0 0 0 0 0 0

GFSNE_con_mucape_258.txt.gz
CAPE
566 437 235 214 88 48 3 0 0 0 0 0 17 206 564 646 804 833 759 948 1066 867 638 367 387 523 656 582 320 99 11 16 81 255 358 257 142 104
643 591 492 314 242 148 9 1 0 0 0 0 52 741 1240 1226 1469 1157 1144 1164 1161 1075 863 675 440 312 602 552 390 292 157 37 147 316 454 405 301 149
329 606 433 484 381 224 109 8 1 0 0 0 13 474 994 1034 1310 1240 1153 1020 1012 1067 1094 941 618 348 439 571 496 282 224 194 241 404 519 482 407 277
5 62 235 546 415 348 325 194 126 33 49 87 260 649 773 1162 1177 1083 1119 1028 1100 1157 1111 917 837 604 390 478 646 420 288 264 285 491 588 528 504 430
48 21 2 13 43 166 319 416 369 298 258 337 399 719 845 839 745 779 1045 968 916 897 895 830 693 418 495 538 653 695 438 309 281 370 440 624 588 494
14 9 1 0 15 9 2 0 204 369 652 710 739 737 661 515 490 493 555 578 452 387 386 320 311 406 510 523 546 613 693 497 366 283 287 312 395 361
4 5 2 3 0 0 0 0 0 114 698 699 993 454 303 311 271 386 362 375 239 180 190 244 327 316 323 393 498 590 592 563 442 407 382 367 296 274
0 1 1 0 0 0 12 2 5 0 113 434 230 120 1 102 199 288 253 300 227 62 147 136 249 288 257 301 337 490 408 529 472 507 433 363 419 312
0 0 0 0 2 5 6 2 4 4 19 9 0 11 0 0 7 136 104 218 66 130 49 95 113 225 284 206 186 193 183 385 365 503 493 483 436 360
0 0 0 0 0 0 0 3 10 15 2 9 1 6 17 49 134 195 181 112 47 86 9 31 151 28 181 195 152 189 202 177 171 246 427 435 436 465
0 0 0 0 0 0 0 0 9 0 0 6 0 0 0 23 27 28 170 109 31 14 10 0 0 0 2 0 17 106 193 234 238 184 169 213 310 432
0 0 0 0 0 0 0 0 0 0 0 0 0 8 0 0 3 2 7 10 11 0 0 2 0 2 2 0 0 10 63 67 173 271 177 205 258 320
0 0 0 0 0 0 0 0 0 0 0 0 0 0 0 4 0 2 0 0 6 30 1 8 0 2 0 0 0 1 4 35 89 101 138 88 283 104
0 0 0 0 0 0 0 0 0 1 2 1 0 0 0 0 6 13 6 6 10 0 0 0 0 0 0 0 0 0 1 5 29 52 61 53 25 131
0 0 0 0 0 0 0 0 0 0 0 0 0 1 4 0 0 1 5 4 0 0 0 0 0 0 0 0 0 0 0 0 7 8 0 0 8 57
0 0 0 0 0 0 0 0 0 0 0 0 5 0 1 0 1 0 1 0 0 0 0 0 0 0 0 1 0 0 1 4 3 5 2 0 27 1
0 0 0 0 0 0 0 0 0 0 0 6 2 0 0 0 0 0 0 0 0 0 0 0 0 0 0 0 0 1 4 4 4 4 1 4 2 0
0 0 0 0 0 0 0 0 0 0 0 6 5 3 0 0 0 0 0 0 3 4 1 0 0 0 0 0 0 0 0 0 0 0 2 2 2 1
0 0 0 0 0 0 0 0 0 0 5 11 7 7 5 0 0 0 0 0 2 0 0 0 0 2 0 0 0 0 0 1 1 8 8 1 0 0
0 0 0 0 0 0 0 0 0 0 2 6 5 6 7 0 0 0 0 1 1 0 0 0 0 0 0 0 0 1 0 1 2 3 3 0 0 1
0 0 0 0 0 0 2 4 2 0 2 11 8 10 13 25 18 16 12 15 0 0 0 0 0 0 0 0 0 0 0 0 1 6 4 0 3 0
0 0 0 0 0 0 0 0 0 0 1 2 4 11 11 22 19 13 1 0 0 0 0 0 0 0 0 0 0 0 2 0 0 1 0 0 0 0
0 0 0 0 0 0 0 0 0 0 0 1 7 0 0 0 0 0 0 0 0 0 0 0 0 0 0 0 0 0 0 0 0 0 0 0 0 0